Time,TemperatureF,DewpointF,PressureIn,WindDirection,WindDirectionDegrees,WindSpeedMPH,WindSpeedGustMPH,Humidity,HourlyPrecipIn,Conditions,Clouds,dailyrainin,SoftwareType,DateUTC
2013-06-05 00:06:00,61.9,57.3,29.89,ESE,112,2.2,-999.0,85,-99.99,,,0.00,Acu-Link.com,2013-06-05 05:06:00,
2013-06-05 00:37:00,63.3,57.7,29.88,SSE,157,3.7,-999.0,82,-99.99,,,0.00,Acu-Link.com,2013-06-05 05:37:00,
2013-06-05 00:52:00,63.0,57.4,29.88,SE,135,3.2,-999.0,82,-99.99,,,0.00,Acu-Link.com,2013-06-05 05:52:00,
2013-06-05 01:07:00,63.0,57.4,29.89,SSE,157,2.7,-999.0,82,-99.99,,,0.00,Acu-Link.com,2013-06-05 06:07:00,
2013-06-05 01:22:00,62.8,57.2,29.88,East,90,3.2,-999.0,82,-99.99,,,0.00,Acu-Link.com,2013-06-05 06:22:00,
2013-06-05 01:38:00,62.4,56.8,29.86,SSE,157,3.7,-999.0,82,-99.99,,,0.00,Acu-Link.com,2013-06-05 06:38:00,
2013-06-05 01:53:00,62.4,56.8,29.87,SE,135,2.2,-999.0,82,-99.99,,,0.00,Acu-Link.com,2013-06-05 06:53:00,
2013-06-05 02:08:00,62.2,56.6,29.87,South,180,3.2,-999.0,82,-99.99,,,0.00,Acu-Link.com,2013-06-05 07:08:00,
2013-06-05 02:23:00,61.9,56.7,29.87,SSE,157,3.2,-999.0,83,-99.99,,,0.00,Acu-Link.com,2013-06-05 07:23:00,
2013-06-05 02:39:00,61.7,56.5,29.86,SSE,157,2.7,-999.0,83,-99.99,,,0.00,Acu-Link.com,2013-06-05 07:39:00,
2013-06-05 02:54:00,61.9,56.7,29.86,SE,135,4.2,-999.0,83,-99.99,,,0.00,Acu-Link.com,2013-06-05 07:54:00,
2013-06-05 03:09:00,62.1,56.9,29.87,ESE,112,1.7,-999.0,83,-99.99,,,0.00,Acu-Link.com,2013-06-05 08:09:00,
2013-06-05 03:24:00,61.9,56.7,29.87,ESE,112,1.7,-999.0,83,-99.99,,,0.00,Acu-Link.com,2013-06-05 08:24:00,
2013-06-05 03:39:00,61.3,56.4,29.87,ENE,67,3.2,-999.0,84,-99.99,,,0.00,Acu-Link.com,2013-06-05 08:39:00,
2013-06-05 03:54:00,60.4,55.9,29.87,East,90,2.2,-999.0,85,-99.99,,,0.00,Acu-Link.com,2013-06-05 08:54:00,
2013-06-05 04:09:00,59.5,55.6,29.86,ENE,67,2.2,-999.0,87,-99.99,,,0.00,Acu-Link.com,2013-06-05 09:09:00,
2013-06-05 04:24:00,59.4,55.8,29.87,ENE,67,2.2,-999.0,88,-99.99,,,0.00,Acu-Link.com,2013-06-05 09:24:00,
2013-06-05 04:39:00,59.5,55.9,29.87,East,90,2.2,-999.0,88,-99.99,,,0.00,Acu-Link.com,2013-06-05 09:39:00,
2013-06-05 04:55:00,59.5,55.9,29.87,East,90,1.7,-999.0,88,-99.99,,,0.00,Acu-Link.com,2013-06-05 09:55:00,
2013-06-05 05:10:00,59.7,55.8,29.86,ESE,112,1.1,-999.0,87,-99.99,,,0.00,Acu-Link.com,2013-06-05 10:10:00,
2013-06-05 05:25:00,60.1,55.9,29.86,ESE,112,1.7,-999.0,86,-99.99,,,0.00,Acu-Link.com,2013-06-05 10:25:00,
2013-06-05 05:40:00,60.6,56.1,29.86,ESE,112,3.2,-999.0,85,-99.99,,,0.00,Acu-Link.com,2013-06-05 10:40:00,
2013-06-05 05:56:00,61.3,56.4,29.85,ESE,112,1.7,-999.0,84,-99.99,,,0.00,Acu-Link.com,2013-06-05 10:56:00,
2013-06-05 06:11:00,61.5,56.3,29.84,ESE,112,3.2,-999.0,83,-99.99,,,0.00,Acu-Link.com,2013-06-05 11:11:00,
2013-06-05 06:26:00,62.2,56.3,29.84,SSE,157,2.7,-999.0,81,-99.99,,,0.00,Acu-Link.com,2013-06-05 11:26:00,
2013-06-05 06:41:00,63.0,56.4,29.85,SE,135,3.7,-999.0,79,-99.99,,,0.00,Acu-Link.com,2013-06-05 11:41:00,
2013-06-05 06:57:00,63.3,56.3,29.85,ESE,112,2.7,-999.0,78,-99.99,,,0.00,Acu-Link.com,2013-06-05 11:57:00,
2013-06-05 07:12:00,63.9,56.9,29.85,South,180,3.2,-999.0,78,-99.99,,,0.00,Acu-Link.com,2013-06-05 12:12:00,
2013-06-05 07:27:00,64.2,57.2,29.85,East,90,2.2,-999.0,78,-99.99,,,0.00,Acu-Link.com,2013-06-05 12:27:00,
2013-06-05 07:42:00,64.4,57.0,29.86,SE,135,5.3,-999.0,77,-99.99,,,0.00,Acu-Link.com,2013-06-05 12:42:00,
2013-06-05 07:57:00,64.4,57.0,29.87,SSE,157,4.2,-999.0,77,-99.99,,,0.00,Acu-Link.com,2013-06-05 12:57:00,
2013-06-05 08:12:00,64.4,57.4,29.87,South,180,3.7,-999.0,78,-99.99,,,0.00,Acu-Link.com,2013-06-05 13:12:00,
2013-06-05 08:27:00,64.2,57.2,29.86,South,180,5.3,-999.0,78,-99.99,,,0.00,Acu-Link.com,2013-06-05 13:27:00,
2013-06-05 08:43:00,64.2,57.2,29.88,South,180,6.8,-999.0,78,-99.99,,,0.00,Acu-Link.com,2013-06-05 13:43:00,
2013-06-05 08:58:00,64.4,57.4,29.87,SSE,157,5.3,-999.0,78,-99.99,,,0.00,Acu-Link.com,2013-06-05 13:58:00,
2013-06-05 09:13:00,64.4,57.7,29.90,NE,45,1.1,-999.0,79,-99.99,,,0.00,Acu-Link.com,2013-06-05 14:13:00,
2013-06-05 09:28:00,64.4,57.7,29.90,WSW,247,0.0,-999.0,79,-99.99,,,0.00,Acu-Link.com,2013-06-05 14:28:00,
2013-06-05 09:44:00,63.9,58.6,29.90,WSW,247,1.7,-999.0,83,-99.99,,,0.01,Acu-Link.com,2013-06-05 14:44:00,
2013-06-05 09:59:00,63.5,58.9,29.88,NW,315,0.0,-999.0,85,-99.99,,,0.02,Acu-Link.com,2013-06-05 14:59:00,
2013-06-05 10:14:00,64.0,60.0,29.87,ENE,67,0.0,-999.0,87,-99.99,,,0.07,Acu-Link.com,2013-06-05 15:14:00,
2013-06-05 10:30:00,65.1,60.1,29.86,ESE,112,2.7,-999.0,84,-99.99,,,0.08,Acu-Link.com,2013-06-05 15:30:00,
2013-06-05 10:45:00,65.8,60.5,29.84,SE,135,2.2,-999.0,83,-99.99,,,0.08,Acu-Link.com,2013-06-05 15:45:00,
2013-06-05 11:00:00,66.4,61.1,29.85,SE,135,4.7,-999.0,83,-99.99,,,0.08,Acu-Link.com,2013-06-05 16:00:00,
2013-06-05 11:15:00,67.3,60.9,29.83,South,180,3.2,-999.0,80,-99.99,,,0.08,Acu-Link.com,2013-06-05 16:15:00,
2013-06-05 11:31:00,68.4,61.3,29.84,SSE,157,2.2,-999.0,78,-99.99,,,0.08,Acu-Link.com,2013-06-05 16:31:00,
2013-06-05 12:01:00,69.4,61.5,29.83,SE,135,5.3,-999.0,76,-99.99,,,0.08,Acu-Link.com,2013-06-05 17:01:00,
2013-06-05 12:32:00,70.2,61.9,29.82,SSW,202,2.7,-999.0,75,-99.99,,,0.08,Acu-Link.com,2013-06-05 17:32:00,
2013-06-05 12:47:00,70.3,62.4,29.82,SW,225,2.7,-999.0,76,-99.99,,,0.08,Acu-Link.com,2013-06-05 17:47:00,
2013-06-05 13:02:00,69.8,62.6,29.81,ENE,67,2.2,-999.0,78,-99.99,,,0.08,Acu-Link.com,2013-06-05 18:02:00,
2013-06-05 13:18:00,69.4,63.0,29.82,NE,45,0.0,-999.0,80,-99.99,,,0.08,Acu-Link.com,2013-06-05 18:18:00,
2013-06-05 13:33:00,69.1,63.0,29.80,ENE,67,0.0,-999.0,81,-99.99,,,0.08,Acu-Link.com,2013-06-05 18:33:00,
2013-06-05 13:48:00,68.7,63.0,29.80,NE,45,0.0,-999.0,82,-99.99,,,0.08,Acu-Link.com,2013-06-05 18:48:00,
2013-06-05 14:03:00,69.4,62.6,29.81,NE,45,2.2,-999.0,79,-99.99,,,0.08,Acu-Link.com,2013-06-05 19:03:00,
2013-06-05 14:18:00,70.7,63.9,29.82,NNE,22,0.0,-999.0,79,-99.99,,,0.08,Acu-Link.com,2013-06-05 19:18:00,
2013-06-05 14:34:00,72.3,63.1,29.82,North,0,0.0,-999.0,73,-99.99,,,0.08,Acu-Link.com,2013-06-05 19:34:00,
2013-06-05 14:49:00,70.0,63.2,29.82,SSE,157,0.0,-999.0,79,-99.99,,,0.09,Acu-Link.com,2013-06-05 19:49:00,
2013-06-05 15:04:00,70.5,62.9,29.81,South,180,1.1,-999.0,77,-99.99,,,0.09,Acu-Link.com,2013-06-05 20:04:00,
2013-06-05 15:19:00,70.5,62.9,29.80,NNE,22,0.0,-999.0,77,-99.99,,,0.09,Acu-Link.com,2013-06-05 20:19:00,
2013-06-05 15:35:00,71.2,63.2,29.80,East,90,2.7,-999.0,76,-99.99,,,0.09,Acu-Link.com,2013-06-05 20:35:00,
2013-06-05 15:50:00,71.2,62.9,29.80,North,0,0.0,-999.0,75,-99.99,,,0.09,Acu-Link.com,2013-06-05 20:50:00,
2013-06-05 16:05:00,72.9,64.5,29.79,ENE,67,3.7,-999.0,75,-99.99,,,0.09,Acu-Link.com,2013-06-05 21:05:00,
2013-06-05 16:21:00,72.7,63.5,29.79,SSE,157,2.7,-999.0,73,-99.99,,,0.09,Acu-Link.com,2013-06-05 21:21:00,
2013-06-05 16:36:00,70.5,63.7,29.80,NE,45,2.7,-999.0,79,-99.99,,,0.09,Acu-Link.com,2013-06-05 21:36:00,
2013-06-05 16:51:00,68.0,63.0,29.81,South,180,1.7,-999.0,84,-99.99,,,0.18,Acu-Link.com,2013-06-05 21:51:00,
2013-06-05 17:37:00,67.3,62.0,29.81,West,270,2.2,-999.0,83,-99.99,,,0.19,Acu-Link.com,2013-06-05 22:37:00,
2013-06-05 17:52:00,67.8,62.4,29.82,WNW,292,1.7,-999.0,83,-99.99,,,0.21,Acu-Link.com,2013-06-05 22:52:00,
2013-06-05 18:07:00,68.9,63.5,29.81,NW,315,2.2,-999.0,83,-99.99,,,0.22,Acu-Link.com,2013-06-05 23:07:00,
2013-06-05 18:23:00,68.0,62.6,29.81,NW,315,5.3,-999.0,83,-99.99,,,0.22,Acu-Link.com,2013-06-05 23:23:00,
2013-06-05 18:38:00,66.9,62.2,29.81,NW,315,2.7,-999.0,85,-99.99,,,0.22,Acu-Link.com,2013-06-05 23:38:00,
2013-06-05 18:53:00,66.7,62.4,29.81,NW,315,2.7,-999.0,86,-99.99,,,0.22,Acu-Link.com,2013-06-05 23:53:00,
2013-06-05 19:09:00,67.1,63.1,29.81,NNW,337,2.2,-999.0,87,-99.99,,,0.22,Acu-Link.com,2013-06-06 00:09:00,
2013-06-05 19:24:00,67.1,62.1,29.82,NNE,22,4.7,-999.0,84,-99.99,,,0.22,Acu-Link.com,2013-06-06 00:24:00,
2013-06-05 19:40:00,66.9,61.6,29.83,NE,45,0.0,-999.0,83,-99.99,,,0.23,Acu-Link.com,2013-06-06 00:40:00,
2013-06-05 19:55:00,66.0,61.4,29.83,NW,315,2.2,-999.0,85,-99.99,,,0.23,Acu-Link.com,2013-06-06 00:55:00,
2013-06-05 20:10:00,65.5,61.2,29.83,NNW,337,2.2,-999.0,86,-99.99,,,0.23,Acu-Link.com,2013-06-06 01:10:00,
2013-06-05 20:25:00,65.1,61.1,29.84,NE,45,4.2,-999.0,87,-99.99,,,0.23,Acu-Link.com,2013-06-06 01:25:00,
2013-06-05 20:40:00,64.4,60.4,29.85,NE,45,1.7,-999.0,87,-99.99,,,0.23,Acu-Link.com,2013-06-06 01:40:00,
2013-06-05 20:56:00,63.5,59.2,29.85,West,270,0.0,-999.0,86,-99.99,,,0.23,Acu-Link.com,2013-06-06 01:56:00,
2013-06-05 21:11:00,62.6,58.3,29.85,NNE,22,1.7,-999.0,86,-99.99,,,0.23,Acu-Link.com,2013-06-06 02:11:00,
2013-06-05 21:26:00,61.9,58.0,29.85,NE,45,0.0,-999.0,87,-99.99,,,0.23,Acu-Link.com,2013-06-06 02:26:00,
2013-06-05 21:42:00,61.0,57.4,29.85,NE,45,0.0,-999.0,88,-99.99,,,0.23,Acu-Link.com,2013-06-06 02:42:00,
2013-06-05 21:57:00,60.6,57.3,29.86,North,0,0.0,-999.0,89,-99.99,,,0.23,Acu-Link.com,2013-06-06 02:57:00,
2013-06-05 22:12:00,59.9,56.6,29.86,NE,45,0.0,-999.0,89,-99.99,,,0.23,Acu-Link.com,2013-06-06 03:12:00,
2013-06-05 22:27:00,59.5,56.3,29.86,West,270,0.0,-999.0,89,-99.99,,,0.23,Acu-Link.com,2013-06-06 03:27:00,
2013-06-05 22:43:00,59.2,56.0,29.87,NW,315,0.0,-999.0,89,-99.99,,,0.23,Acu-Link.com,2013-06-06 03:43:00,
2013-06-05 22:58:00,58.8,55.9,29.87,NW,315,1.1,-999.0,90,-99.99,,,0.23,Acu-Link.com,2013-06-06 03:58:00,
2013-06-05 23:13:00,58.5,55.6,29.87,North,0,0.0,-999.0,90,-99.99,,,0.23,Acu-Link.com,2013-06-06 04:13:00,
2013-06-05 23:28:00,58.5,55.6,29.87,WNW,292,1.1,-999.0,90,-99.99,,,0.23,Acu-Link.com,2013-06-06 04:28:00,
2013-06-05 23:43:00,59.0,56.4,29.87,North,0,0.0,-999.0,91,-99.99,,,0.23,Acu-Link.com,2013-06-06 04:43:00,
2013-06-05 23:59:00,59.0,56.4,29.88,NNE,22,0.0,-999.0,91,-99.99,,,0.23,Acu-Link.com,2013-06-06 04:59:00,